GW7064 Weather Reports


time (UTC)temp
C
wind
direction
speed
KPH
gust
KPH
rain 1hr
cm
rain 24hr
cm
rain mn
cm
humidity
%
barometer
mb
20260504182801 18 213 16.1 22.5 0.00 0.00 0.00 39 1005.2
20260504182259 18 251 16.1 24.1 0.00 0.00 0.00 40 1005.1
20260504181758 18 288 12.9 17.7 0.00 0.00 0.00 40 1005.3
20260504181259 18 258 12.9 16.1 0.00 0.00 0.00 40 1005.4
20260504180758 18 280 17.7 25.7 0.00 0.00 0.00 41 1005.5
20260504180258 18 269 16.1 22.5 0.00 0.00 0.00 40 1005.7
20260504175757 18 308 16.1 20.9 0.00 0.00 0.00 41 1005.6
20260504175259 18 290 16.1 25.7 0.00 0.00 0.00 40 1005.7
20260504174759 18 287 8.0 14.5 0.00 0.00 0.00 41 1005.1
20260504174259 18 308 12.9 20.9 0.00 0.00 0.00 41 1005.7
20260504173759 18 271 17.7 22.5 0.00 0.00 0.00 41 1005.5
20260504173259 18 299 20.9 38.6 0.00 0.00 0.00 41 1005.7
20260504172759 18 291 14.5 19.3 0.00 0.00 0.00 42 1005.3
20260504172259 18 281 11.3 14.5 0.00 0.00 0.00 41 1005.6
20260504171759 18 277 9.7 16.1 0.00 0.00 0.00 41 1005.2
20260504171257 17 266 9.7 14.5 0.00 0.00 0.00 41 1005.5
20260504170758 17 261 9.7 12.9 0.00 0.00 0.00 40 1005.3
20260504170259 17 279 11.3 17.7 0.00 0.00 0.00 40 1005.7
20260504160301 16 285 19.3 25.7 0.00 0.00 0.00 43 1006.4
20260504150759 16 272 12.9 19.3 0.00 0.00 0.00 43 1006.5
20260504150258 15 268 17.7 24.1 0.00 0.00 0.00 43 1006.4
20260504141300 15 265 12.9 16.1 0.00 0.00 0.00 45 1006.3
20260504140800 14 303 11.3 14.5 0.00 0.00 0.00 48 1006.4
20260504140303 14 257 11.3 16.1 0.00 0.00 0.00 45 1006.5
20260504130759 12 288 12.9 14.5 0.00 0.00 0.00 51 1007.4
20260504130259 12 275 8.0 11.3 0.00 0.00 0.00 52 1007.4
20260504120300 10 237 8.0 12.9 0.00 0.00 0.00 56 1007.9
20260504110258 7 70 1.6 4.8 0.00 0.00 0.00 78 1008.3
20260504100300 5 90 1.6 3.2 0.00 0.00 0.00 86 1008.2
20260504081801 5 90 1.6 3.2 0.00 0.00 0.00 83 1008.2
20260504081258 4 99 1.6 3.2 0.00 0.00 0.00 85 1008.2
20260504080759 4 77 1.6 3.2 0.00 0.00 0.00 86 1008.4
20260504080257 4 0 0.0 0.0 0.00 0.00 0.00 85 1008.5
20260504070259 4 67 0.0 1.6 0.00 0.00 0.00 85 1008.2
20260504050259 1 48 0.0 0.0 0.00 0.00 0.00 92 1008.7
20260504045757 1 34 0.0 0.0 0.00 0.00 0.00 92 1008.8
20260504045256 0 86 1.6 3.2 0.00 0.00 0.00 93 1008.8
20260504044759 0 122 0.0 3.2 0.00 0.00 0.00 93 1008.8
20260504044257 0 162 1.6 3.2 0.00 0.00 0.00 94 1008.9
20260504043756 0 78 3.2 4.8 0.00 0.00 0.00 94 1008.8
20260504043258 0 134 0.0 1.6 0.00 0.00 0.00 95 1008.9
20260504042758 0 66 0.0 0.0 0.00 0.00 0.00 94 1009.0
20260504042257 0 157 3.2 3.2 0.00 0.00 0.00 94 1009.0
20260504041759 0 177 1.6 3.2 0.00 0.00 0.00 95 1009.0
20260504041258 0 140 1.6 3.2 0.00 0.00 0.00 94 1008.9
20260504040756 0 84 3.2 4.8 0.00 0.00 0.00 94 1008.9
20260504040256 0 134 0.0 3.2 0.00 0.00 0.00 94 1008.9
20260504035756 0 125 1.6 3.2 0.00 0.00 0.00 94 1008.8
20260504035257 0 121 1.6 3.2 0.00 0.00 0.00 93 1008.8
20260504034757 0 91 0.0 0.0 0.00 0.00 0.00 93 1008.9
20260504034257 0 78 1.6 3.2 0.00 0.00 0.00 93 1008.9
20260504033757 0 86 3.2 4.8 0.00 0.00 0.00 93 1008.8
20260504033258 0 105 0.0 3.2 0.00 0.00 0.00 92 1009.0
20260504032756 0 88 1.6 3.2 0.00 0.00 0.00 92 1009.0
20260504032256 0 78 1.6 3.2 0.00 0.00 0.00 92 1008.9
20260504031756 0 134 1.6 3.2 0.00 0.00 0.00 92 1009.0
20260504031259 0 92 0.0 3.2 0.00 0.00 0.00 91 1008.9
20260504030757 1 71 0.0 3.2 0.00 0.00 0.00 91 1008.9
20260504030257 1 137 0.0 3.2 0.00 0.00 0.00 90 1008.8
20260504025756 1 62 1.6 3.2 0.00 0.00 0.00 90 1008.8
20260504025257 1 127 1.6 3.2 0.00 0.00 0.00 90 1008.8
20260504024756 1 140 1.6 3.2 0.00 0.00 0.00 89 1008.8
20260504024258 1 42 0.0 1.6 0.00 0.00 0.00 89 1008.9
20260504023758 1 77 0.0 1.6 0.00 0.00 0.00 88 1008.9
20260504023257 1 76 3.2 3.2 0.00 0.00 0.00 88 1008.9
20260504022756 1 0 0.0 0.0 0.00 0.00 0.00 87 1009.0
20260504022258 1 83 0.0 3.2 0.00 0.00 0.00 87 1009.0
20260504021756 1 69 1.6 3.2 0.00 0.00 0.00 87 1008.9
20260504020943 1 73 1.6 3.2 0.00 0.00 0.00 86 1008.9
20260504020257 2 91 0.0 3.2 0.00 0.00 0.00 85 1008.9
20260504015756 2 73 1.6 3.2 0.00 0.00 0.00 85 1008.9
20260504015257 2 92 0.0 1.6 0.00 0.00 0.00 83 1008.8
20260504014756 2 121 0.0 3.2 0.00 0.00 0.00 82 1008.8
20260504014257 2 69 0.0 1.6 0.00 0.00 0.00 82 1008.8
20260504013757 2 66 0.0 1.6 0.00 0.00 0.00 81 1008.8
20260504013256 2 95 0.0 1.6 0.00 0.00 0.00 80 1008.7
20260504012757 2 0 0.0 0.0 0.00 0.00 0.00 79 1008.7
20260504012256 2 65 1.6 3.2 0.00 0.00 0.00 78 1008.7
20260504011756 3 63 0.0 1.6 0.00 0.00 0.00 78 1008.6
20260504011257 3 76 1.6 3.2 0.00 0.00 0.00 78 1008.4
20260504010757 3 75 0.0 1.6 0.00 0.00 0.00 76 1008.4
20260504010257 3 78 1.6 3.2 0.00 0.00 0.00 76 1008.3
20260504005756 3 69 0.0 1.6 0.00 0.00 0.00 74 1008.3
20260504005256 3 72 0.0 1.6 0.00 0.00 0.00 73 1008.2
20260504004759 3 0 0.0 0.0 0.00 0.00 0.00 72 1008.2
20260504004256 4 0 0.0 0.0 0.00 0.00 0.00 71 1008.2
20260504003756 4 75 0.0 1.6 0.00 0.00 0.00 71 1008.1
20260504003256 4 0 0.0 0.0 0.00 0.00 0.00 71 1008.1
20260504002756 4 66 0.0 1.6 0.00 0.00 0.00 69 1008.0
20260504002257 5 67 3.2 3.2 0.00 0.00 0.00 68 1008.0
20260504001756 5 81 1.6 3.2 0.00 0.00 0.00 67 1007.9
20260504001256 5 76 0.0 3.2 0.00 0.00 0.00 69 1007.8
20260504000757 5 77 1.6 3.2 0.00 0.00 0.00 68 1007.7
20260504000257 6 70 1.6 3.2 0.00 0.00 0.00 66 1007.7
20260503235757 6 84 1.6 3.2 0.00 0.00 0.00 65 1007.6
20260503235256 6 55 1.6 3.2 0.00 0.00 0.00 66 1007.6
20260503234756 7 78 0.0 3.2 0.00 0.00 0.00 64 1007.4
20260503234259 7 61 1.6 3.2 0.00 0.00 0.00 62 1007.3
20260503233758 8 140 0.0 1.6 0.00 0.00 0.00 59 1007.3
20260503233257 9 31 0.0 1.6 0.00 0.00 0.00 57 1007.3
20260503232756 9 319 0.0 3.2 0.00 0.00 0.00 51 1007.1
20260503232256 9 299 3.2 6.4 0.00 0.00 0.00 52 1007.0
20260503231757 9 310 6.4 8.0 0.00 0.00 0.00 50 1006.9
20260503231257 9 273 3.2 4.8 0.00 0.00 0.00 49 1006.9
20260503230756 9 311 6.4 8.0 0.00 0.00 0.00 50 1006.9
20260503230256 9 287 3.2 6.4 0.00 0.00 0.00 49 1007.0
20260503225756 9 298 3.2 3.2 0.00 0.00 0.00 50 1007.0
20260503225256 9 321 4.8 6.4 0.00 0.00 0.00 50 1006.9
20260503224757 9 310 4.8 8.0 0.00 0.00 0.00 51 1006.9
20260503224257 9 318 9.7 16.1 0.00 0.00 0.00 50 1007.0
20260503223758 9 319 6.4 11.3 0.00 0.00 0.00 50 1006.9
20260503223257 9 322 3.2 8.0 0.00 0.00 0.00 51 1006.8
20260503222757 9 308 6.4 11.3 0.00 0.00 0.00 49 1006.8
20260503222257 9 300 6.4 9.7 0.00 0.00 0.00 50 1006.7
20260503221756 9 230 3.2 6.4 0.00 0.00 0.00 50 1006.7
20260503221256 9 303 4.8 11.3 0.00 0.00 0.00 50 1006.7
20260503220758 9 323 8.0 14.5 0.00 0.00 0.00 50 1006.7
20260503220257 9 315 6.4 12.9 0.00 0.00 0.00 50 1006.7
20260503215756 9 312 9.7 12.9 0.00 0.00 0.00 48 1006.5
20260503215256 9 306 6.4 11.3 0.00 0.00 0.00 49 1006.6
20260503214756 9 307 9.7 12.9 0.00 0.00 0.00 50 1006.6
20260503214256 9 321 9.7 14.5 0.00 0.00 0.00 50 1006.7
20260503213756 9 208 6.4 14.5 0.00 0.00 0.00 48 1006.6
20260503213257 9 299 4.8 11.3 0.00 0.00 0.00 47 1006.5
20260503212757 9 269 3.2 6.4 0.00 0.00 0.00 48 1006.4
20260503212256 10 298 8.0 12.9 0.00 0.00 0.00 48 1006.4
20260503211758 10 295 4.8 11.3 0.00 0.00 0.00 47 1006.3
20260503211256 10 293 9.7 14.5 0.00 0.00 0.00 48 1006.3
20260503210756 10 307 9.7 14.5 0.00 0.00 0.00 47 1006.4
20260503210257 9 302 4.8 12.9 0.00 0.00 0.00 48 1006.2
20260503205757 9 306 12.9 19.3 0.00 0.00 0.00 48 1006.2
20260503205256 10 317 6.4 11.3 0.00 0.00 0.00 47 1006.2
20260503204757 10 310 11.3 16.1 0.00 0.00 0.00 45 1006.1
20260503204256 10 309 9.7 14.5 0.00 0.00 0.00 47 1005.9
20260503203756 9 313 14.5 19.3 0.00 0.00 0.00 46 1006.1
20260503203256 9 311 16.1 19.3 0.00 0.00 0.00 48 1006.1
20260503202757 9 314 17.7 22.5 0.00 0.00 0.00 48 1006.1
20260503202256 9 300 11.3 16.1 0.00 0.00 0.00 45 1006.2
20260503201756 9 299 6.4 12.9 0.00 0.00 0.00 50 1005.9
20260503201256 9 303 12.9 19.3 0.00 0.00 0.00 51 1005.9
20260503200757 9 261 3.2 4.8 0.00 0.00 0.00 46 1005.9
20260503200301 9 311 8.0 16.1 0.00 0.00 0.00 46 1006.0
20260503195757 9 303 11.3 16.1 0.00 0.00 0.00 47 1006.0
20260503195256 9 303 11.3 16.1 0.00 0.00 0.00 49 1006.0
20260503194756 9 313 11.3 19.3 0.00 0.00 0.00 49 1006.0
20260503194257 9 314 14.5 17.7 0.00 0.00 0.00 48 1005.9
20260503193757 9 309 11.3 19.3 0.00 0.00 0.00 48 1005.9
20260503193257 9 304 14.5 17.7 0.00 0.00 0.00 48 1005.9
20260503192757 9 306 14.5 17.7 0.00 0.00 0.00 47 1005.8
20260503192257 9 318 16.1 20.9 0.00 0.00 0.00 47 1005.8
20260503191756 9 313 14.5 20.9 0.00 0.00 0.00 46 1006.1
20260503191256 9 311 14.5 20.9 0.00 0.00 0.00 47 1006.2
20260503190757 10 307 11.3 16.1 0.00 0.00 0.00 49 1006.1
20260503190256 10 297 6.4 12.9 0.00 0.00 0.00 49 1005.9
20260503185756 10 303 12.9 16.1 0.00 0.00 0.00 50 1006.0
20260503185256 9 299 9.7 14.5 0.00 0.00 0.00 47 1005.8
20260503184756 9 311 12.9 16.1 0.00 0.00 0.00 47 1005.9
20260503184257 9 308 12.9 17.7 0.00 0.00 0.00 49 1006.0
20260503183757 9 308 8.0 11.3 0.00 0.00 0.00 48 1006.1
20260503183257 9 308 12.9 16.1 0.00 0.00 0.00 48 1006.0